Showing default

GSAT 29, 43698

Orbit data source: Space-Track

GSAT 29, 43698 is a payload satellite owned by ISRO (IN) in GEO that was launched on Wed, 14 Nov 2018 UTC via a GSLV MK III launch vehicle from the Sirharikota (SRI). Payload-class satellites include a variety of spacecraft equipped with specific instruments for various scientific and technological missions. These include communications satellites like Starlink; space stations such as the ISS; scientific satellites like the Hubble; Earth observation satellites from companies like Planet Labs, Umbra, and HawkEye 360; GPS; miniature CubeSats for education and research; and military/defense satellites.

Not visible in the next 10 days
Identifier
43698, 2018-089A
Orbit
GEO
Country
Flag of ININ / IND
Related business
Manufacturer
ISRO SAC/Banga
Mission
Operational Civil Communications
Bus & Motor
I3K, ISRO LAM
Mass
3,423 kg wet, ~1,500 kg dry
Launch date (UTC)
2018-11-14 (7 years ago)
Launch vehicle
GSLV MK III
Launch site
Sirharikota (SRI)
Object type
Payload
Rocket body
Debris
Shape & HBR
Box + 2 Pan, 10.0 m
Radar Cross Section
16.006 m², Large (>1 m²)

Expand to show TLE details & history
Last TLE update: 1 day ago

TLE from 1 day ago
0 GSAT 29
1 43698U 18089A   26034.30044966  .00000076  00000-0  00000-0 0  9996
2 43698   0.0449  91.2642 0002979 214.7505 350.6622  1.00272261 26445
Epoch: 2026-02-03T07:12Z
TLE epoch observation values (Epoch: 2026-02-03T07:12:38.850Z)
Latitude
-0.02971°
Longitude
55.06405°
Altitude
35,773.5 km
Speed
3.076 km/s
True Right ascension
19h 46m 50s
True Declination
0° 01' 47"
Sunlit
Object was in daylight at epoch
Visualization orbit readout
Latitude
Unknown
Longitude
Unknown
Altitude
Unknown
Speed
Unknown
Apparent Right ascension
Unknown
Apparent Declination
Unknown
Sunlit
N/A
Visualization observer readout
Local Sidereal Time
13:59:42
Azimuth
Unknown
Elevation
Unknown
Doppler factor
Unknown
Orbital elements
Apogee altitude
35,800.093 km
Perigee altitude
35,774.971 km
Semi-major axis
42,165.669 km
Eccentricity
0.0003
Inclination
0.0449°
RAAN
91.2642°
Arg. of periapsis
214.7505°
True anomaly
350.65666°
Mean anomaly
350.6622°
Eccentric anomaly
350.65943°
Mean motion
0.25067 °/min
Orbital period
1,436.14 mins
BSTAR
0
Loading maneuver chart data...
Computing Atmospheric mass density...
Loading historical data...
Loading historical data...
Loading historical data...
Loading historical data...
Loading historical data...
Loading historical data...
Loading historical data...
Other satellites on launch #89 in the year 2018 (2018-11-14 UTC)

Documentation

Showing up to 5 results
|